Parsons, KS

7:49 PM CST on February 21, 2018 (GMT -0600)
Tri-City

Weather History for KPPF - April, 2013

Change the Weather History Date:

Sunday, April 7, 2013

  Actual Average Record
Temperature  
Mean Temperature 59 °F -  
Max Temperature 75 °F 68 °F 88 °F (2015)
Min Temperature 43 °F 43 °F 23 °F (2009)
Degree Days  
Heating Degree Days 6    
Growing Degree Days 9 (Base 50)    
Moisture  
Dew Point 54 °F    
Average Humidity 76    
Maximum Humidity 93    
Minimum Humidity 54    
Precipitation  
Precipitation 0.00 in - - ()
Sea Level Pressure  
Sea Level Pressure 29.79 in    
Wind  
Wind Speed 5 mph (South)    
Max Wind Speed 20 mph    
Max Gust Speed 30 mph    
Visibility 9 miles    
Events Rain    
Averages and records for this station are not official NWS values.
T = Trace of Precipitation, MM = Missing Value Source: NWS Daily Summary

Daily Weather History Graph

Daily Weather History Graph

Search for Another Location

Airport or City:

Trip Planner

Search our weather history database for the weather conditions in past years. The results will help you decide how hot, cold, wet, or windy it might be!

Date:

Astronomy

Apr. 07, 2013 Rise Set
Actual Time 6:58 AM CDT 7:50 PM CDT
Civil Twilight 6:31 AM CDT 8:16 PM CDT
Nautical Twilight 6:00 AM CDT 8:48 PM CDT
Astronomical Twilight 5:28 AM CDT 9:20 PM CDT
Moon 5:13 AM CDT (4/7) 5:26 PM CDT (4/7)
Length of Visible Light 13h 45m
Length of Day
12h 51m
Waning Crescent, 8% of the Moon is Illuminated
Apr 7
Waning Crescent
Apr 10
New
Apr 18
First Quarter
Apr 25
Full
May 2
Last Quarter

Hourly Weather History & Observations

Time (CDT) Temp. Dew Point Humidity Pressure Visibility Wind Dir Wind Speed Gust Speed Precip Events Conditions
12:52 AM 54.0 °F 48.0 °F 80% 29.85 in 10.0 mi Calm Calm - N/A   Clear
1:52 AM 48.9 °F 45.0 °F 86% 29.85 in 10.0 mi Calm Calm - N/A   Clear
2:52 AM 48.0 °F 44.1 °F 86% 29.85 in 10.0 mi Calm Calm - N/A   Clear
3:52 AM 46.0 °F 43.0 °F 89% 29.85 in 10.0 mi Calm Calm - N/A   Clear
4:52 AM 45.0 °F 41.0 °F 86% 29.84 in 10.0 mi Calm Calm - N/A   Clear
5:52 AM 44.1 °F 41.0 °F 89% 29.85 in 7.0 mi Calm Calm - N/A   Clear
6:52 AM 43.0 °F 41.0 °F 93% 29.86 in 7.0 mi Calm Calm - N/A   Clear
7:52 AM 48.9 °F 46.9 °F 93% 29.88 in 7.0 mi Calm Calm - N/A   Clear
8:52 AM 57.0 °F 52.0 °F 83% 29.88 in 10.0 mi South 4.6 mph - N/A   Clear
9:52 AM 64.9 °F 55.9 °F 73% 29.87 in 10.0 mi South 10.4 mph - N/A   Clear
10:52 AM 66.9 °F 55.9 °F 68% 29.87 in 10.0 mi South 8.1 mph - N/A   Clear
11:52 AM 69.1 °F 57.0 °F 65% 29.86 in 10.0 mi South 5.8 mph - N/A   Clear
12:52 PM 70.0 °F 57.0 °F 63% 29.84 in 10.0 mi SSE 8.1 mph - N/A   Clear
1:52 PM 73.0 °F 59.0 °F 61% 29.79 in 10.0 mi SE 10.4 mph 18.4 mph N/A   Scattered Clouds
2:01 PM 71.6 °F 57.2 °F 60% 29.80 in 10.0 mi SE 12.7 mph 19.6 mph N/A   Mostly Cloudy
2:23 PM 73.4 °F 57.2 °F 57% 29.79 in 10.0 mi SSE 10.4 mph 19.6 mph N/A   Overcast
2:52 PM 73.9 °F 57.9 °F 57% 29.75 in 10.0 mi SSE 13.8 mph 20.7 mph N/A   Mostly Cloudy
3:52 PM 75.9 °F 57.9 °F 54% 29.71 in 10.0 mi South 15.0 mph 23.0 mph N/A   Overcast
4:52 PM 73.0 °F 57.0 °F 57% 29.71 in 10.0 mi South 11.5 mph 21.9 mph N/A   Overcast
5:52 PM 71.1 °F 57.9 °F 63% 29.71 in 10.0 mi SSW 10.4 mph 19.6 mph N/A   Overcast
6:52 PM 68.0 °F 57.0 °F 68% 29.72 in 10.0 mi South 15.0 mph 25.3 mph N/A   Overcast
7:06 PM 68.0 °F 55.4 °F 64% 29.73 in 10.0 mi South 15.0 mph 29.9 mph N/A   Overcast
7:36 PM 64.4 °F 57.2 °F 77% 29.75 in 6.0 mi South 19.6 mph 28.8 mph 0.00 in Rain Light Rain
7:52 PM 64.0 °F 57.0 °F 78% 29.74 in 7.0 mi South 12.7 mph 21.9 mph 0.00 in   Overcast
8:49 PM 62.6 °F 59.0 °F 88% 29.75 in 7.0 mi South 9.2 mph - 0.00 in   Overcast
8:52 PM 62.1 °F 59.0 °F 90% 29.74 in 7.0 mi South 9.2 mph - 0.00 in   Overcast
9:37 PM 62.6 °F 59.0 °F 88% 29.75 in 7.0 mi SSE 9.2 mph - 0.00 in Rain Light Rain
9:52 PM 61.0 °F 57.9 °F 90% 29.73 in 9.0 mi SSE 9.2 mph - 0.00 in   Overcast
10:52 PM 62.1 °F 57.9 °F 86% 29.73 in 10.0 mi South 6.9 mph - N/A   Scattered Clouds
11:52 PM 63.0 °F 57.0 °F 81% 29.72 in 10.0 mi South 9.2 mph 17.3 mph N/A   Mostly Cloudy